This demonstration page uses our WeatherBlox Daily Observations layout. Learn more.

Hourly Observations for December 16, 2016

Temp ( °F °C ) Dew Point ( °F °C ) Humidity (%) Winds ( mph kmh ) Pressure ( in mb ) Visibility ( mi km ) Precip ( " mm )
12:15 am 00:15 Clear 18 -8 0 -18 45 45 undefined N/A 30.45 1031 10 16.0934 0 0
12:35 am 00:35 Clear 18 -8 0 -18 45 45 undefined N/A 30.45 1031 10 16.0934 0 0
12:55 am 00:55 Clear 18 -8 0 -18 45 45 undefined N/A 30.45 1031 10 16.0934 0 0
1:15 am 01:15 Clear 16 -9 0 -18 48 48 undefined N/A 30.45 1031 10 16.0934 0 0
1:35 am 01:35 Clear 16 -9 1 -17 53 53 undefined N/A 30.45 1031 10 16.0934 0 0
1:55 am 01:55 Clear 14 -10 1 -17 57 57 undefined N/A 30.48 1032 10 16.0934 0 0
2:15 am 02:15 Clear 14 -10 1 -17 57 57 undefined N/A 30.48 1032 10 16.0934 0 0
2:35 am 02:35 Clear 16 -9 1 -17 53 53 undefined N/A 30.48 1032 10 16.0934 0 0
2:55 am 02:55 Clear 18 -8 0 -18 45 45 undefined N/A 30.5 1033 10 16.0934 0 0
3:15 am 03:15 Clear 16 -9 0 -18 48 48 undefined N/A 30.5 1033 10 16.0934 0 0
3:35 am 03:35 Clear 14 -10 3 -16 62 62 undefined N/A 30.5 1033 10 16.0934 0 0
3:55 am 03:55 Clear 18 -8 0 -18 45 45 undefined N/A 30.5 1033 10 16.0934 0 0
4:15 am 04:15 Clear 16 -9 1 -17 53 53 undefined N/A 30.48 1032 10 16.0934 0 0
4:35 am 04:35 Clear 14 -10 3 -16 62 62 undefined N/A 30.5 1033 10 16.0934 0 0
4:55 am 04:55 Clear 14 -10 3 -16 62 62 undefined N/A 30.5 1033 10 16.0934 0 0
5:15 am 05:15 Clear 16 -9 3 -16 57 57 undefined N/A 30.5 1033 10 16.0934 0 0
5:35 am 05:35 Clear 16 -9 3 -16 57 57 undefined N/A 30.5 1033 10 16.0934 0 0
5:55 am 05:55 Clear 18 -8 1 -17 49 49 undefined N/A 30.5 1033 10 16.0934 0 0
6:15 am 06:15 Clear 18 -8 1 -17 49 49 undefined N/A 30.53 1034 10 16.0934 0 0
6:35 am 06:35 Clear 18 -8 1 -17 49 49 undefined N/A 30.5 1033 10 16.0934 0 0
6:55 am 06:55 Clear 18 -8 0 -18 45 45 undefined N/A 30.53 1034 10 16.0934 0 0
7:15 am 07:15 Clear 19 -7 0 -18 42 42 undefined N/A 30.53 1034 10 16.0934 0 0
7:35 am 07:35 Sunny 19 -7 0 -18 42 42 undefined N/A 30.56 1035 10 16.0934 0 0
7:55 am 07:55 Partly Cloudy 19 -7 0 -18 42 42 undefined N/A 30.53 1034 10 16.0934 0 0
8:15 am 08:15 Mostly Cloudy 19 -7 0 -18 42 42 undefined N/A 30.53 1034 10 16.0934 0 0
8:35 am 08:35 Cloudy 19 -7 0 -18 42 42 undefined N/A 30.53 1034 10 16.0934 0 0
8:55 am 08:55 Mostly Cloudy 21 -6 0 -18 38 38 undefined N/A 30.53 1034 10 16.0934 0 0
9:15 am 09:15 Cloudy 21 -6 0 -18 38 38 undefined N/A 30.56 1035 10 16.0934 0 0
9:35 am 09:35 Cloudy 21 -6 -2 -19 35 35 undefined N/A 30.56 1035 10 16.0934 0 0
9:55 am 09:55 Mostly Cloudy 21 -6 -2 -19 35 35 undefined N/A 30.56 1035 10 16.0934 0 0
10:15 am 10:15 Mostly Cloudy 21 -6 -2 -19 35 35 undefined N/A 30.56 1035 10 16.0934 0 0
10:35 am 10:35 Cloudy 23 -5 0 -18 36 36 undefined N/A 30.56 1035 10 16.0934 0 0
10:55 am 10:55 Cloudy 23 -5 0 -18 36 36 undefined N/A 30.56 1035 10 16.0934 0 0
11:15 am 11:15 Cloudy 23 -5 -2 -19 33 33 undefined N/A 30.56 1035 10 16.0934 0 0
11:35 am 11:35 Cloudy 25 -4 -2 -19 30 30 undefined N/A 30.53 1034 10 16.0934 0 0
11:55 am 11:55 Cloudy 25 -4 -4 -20 28 28 undefined N/A 30.53 1034 10 16.0934 0 0
12:15 pm 12:15 Cloudy 25 -4 -2 -19 30 30 undefined N/A 30.53 1034 10 16.0934 0 0
12:35 pm 12:35 Cloudy 27 -3 -2 -19 28 28 undefined N/A 30.5 1033 10 16.0934 0 0
12:55 pm 12:55 Cloudy 27 -3 -2 -19 28 28 undefined N/A 30.5 1033 10 16.0934 0 0
1:15 pm 13:15 Cloudy 27 -3 0 -18 31 31 undefined N/A 30.48 1032 10 16.0934 0 0
1:35 pm 13:35 Cloudy 27 -3 0 -18 31 31 undefined N/A 30.48 1032 10 16.0934 0 0
1:55 pm 13:55 Cloudy 27 -3 0 -18 31 31 undefined N/A 30.48 1032 10 16.0934 0 0
2:15 pm 14:15 Cloudy 27 -3 -2 -19 28 28 undefined N/A 30.45 1031 10 16.0934 0 0
2:35 pm 14:35 Cloudy 28 -2 -2 -19 26 26 undefined N/A 30.45 1031 10 16.0934 0 0
2:55 pm 14:55 Cloudy 28 -2 0 -18 29 29 undefined N/A 30.45 1031 10 16.0934 0 0
3:15 pm 15:15 Cloudy 28 -2 0 -18 29 29 undefined N/A 30.45 1031 10 16.0934 0 0
3:35 pm 15:35 Cloudy 28 -2 0 -18 29 29 undefined N/A 30.45 1031 10 16.0934 0 0
3:55 pm 15:55 Cloudy 28 -2 0 -18 29 29 undefined N/A 30.45 1031 10 16.0934 0 0
4:15 pm 16:15 Cloudy 28 -2 1 -17 31 31 undefined N/A 30.45 1031 10 16.0934 0 0
4:35 pm 16:35 Cloudy 28 -2 1 -17 31 31 undefined N/A 30.45 1031 10 16.0934 0 0
4:55 pm 16:55 Cloudy 28 -2 0 -18 29 29 undefined N/A 30.42 1030 10 16.0934 0 0
5:15 pm 17:15 Cloudy 28 -2 1 -17 31 31 undefined N/A 30.42 1030 10 16.0934 0 0
5:35 pm 17:35 Mostly Cloudy 28 -2 1 -17 31 31 undefined N/A 30.42 1030 10 16.0934 0 0
5:55 pm 17:55 Mostly Cloudy 28 -2 3 -16 34 34 undefined N/A 30.42 1030 10 16.0934 0 0
6:15 pm 18:15 Cloudy 28 -2 3 -16 34 34 undefined N/A 30.42 1030 10 16.0934 0 0
6:35 pm 18:35 Cloudy 28 -2 3 -16 34 34 undefined N/A 30.42 1030 10 16.0934 0 0
6:55 pm 18:55 Cloudy 28 -2 3 -16 34 34 undefined N/A 30.42 1030 10 16.0934 0 0
7:15 pm 19:15 Cloudy 28 -2 3 -16 34 34 undefined N/A 30.42 1030 10 16.0934 0 0
7:35 pm 19:35 Cloudy 28 -2 3 -16 34 34 undefined N/A 30.42 1030 10 16.0934 0 0
7:55 pm 19:55 Cloudy 28 -2 5 -15 37 37 undefined N/A 30.39 1029 10 16.0934 0 0
8:15 pm 20:15 Cloudy 28 -2 5 -15 37 37 undefined N/A 30.39 1029 10 16.0934 0 0
8:35 pm 20:35 Cloudy 28 -2 5 -15 37 37 undefined N/A 30.39 1029 10 16.0934 0 0
8:55 pm 20:55 Cloudy 28 -2 5 -15 37 37 undefined N/A 30.39 1029 10 16.0934 0 0
9:15 pm 21:15 Cloudy 28 -2 5 -15 37 37 undefined N/A 30.36 1028 10 16.0934 0 0
9:35 pm 21:35 Cloudy 28 -2 5 -15 37 37 undefined N/A 30.36 1028 10 16.0934 0 0
9:55 pm 21:55 Cloudy 28 -2 5 -15 37 37 undefined N/A 30.36 1028 10 16.0934 0 0
10:15 pm 22:15 Cloudy 28 -2 5 -15 37 37 undefined N/A 30.33 1027 10 16.0934 0 0
10:35 pm 22:35 Cloudy 28 -2 5 -15 37 37 undefined N/A 30.33 1027 10 16.0934 0 0
10:55 pm 22:55 Cloudy 28 -2 5 -15 37 37 undefined N/A 30.33 1027 10 16.0934 0 0
11:15 pm 23:15 Cloudy 28 -2 5 -15 37 37 undefined N/A 30.33 1027 10 16.0934 0 0
11:35 pm 23:35 Cloudy 30 -1 5 -15 34 34 undefined N/A 30.33 1027 10 16.0934 0 0
11:55 pm 23:55 Cloudy 30 -1 7 -14 37 37 undefined N/A 30.33 1027 10 16.0934 0 0

Powered by AerisWeather